STARLINK-11488 [DTC] (62222 NORAD) Tracking and Keplerian Element Data

This shows tracking and keplerian element data for the satellite.

Feedback or suggestion? Click here.




ElementValue
Catalog62222
NameSTARLINK-11488 [DTC]
Epoch Orbit1053
Epoch Day35.01676341
Epoch Year2025
RAAN266.7115
Inclination53.159
Eccentricity8.44E-05
Argument of Perigee86.0326
Mean Anonmoly274.0788
Mean Motion15.69721574
Decay Rate2.716E-05
L11 62222U 24231E 25035.01676341 .00002716 00000+0 27251-4 0 9995
L22 62222 53.1590 266.7115 0000844 86.0326 274.0788 15.69721574 10530



Live tracking and technical data element details for STARLINK-11488 [DTC] (NORAD 62222). STARLINK-11488 [DTC] can be tracked NOW for your location showing map with azimuth and elevation plus other details from your city location.







IsCatalogInMostPopularTable: catalog: 62222, numindb: 14
Update: records affected: 1



GetName: 62222 STARLINK-11488 [DTC]

Hit Count: updated at: Sat, 24 May 2025 16:58:50 GMT